sat.trackr.live / text

‹ back to catalog

STARLINK-34747

NORAD 64947 · 2025-158R

PAYLOAD ACTIVE UNKNOWN

§ Identity

Operator
Country
US
Launch date
2025-07-27
Launch site
AFWTR
Launch vehicle
Mass (kg)
RCS (m²)

Purposes: comms

External: N2YO · Heavens-Above · Gunter

§ Orbital elements

Epoch: 2026-09-20T21:57:26.983296Z

Period
93.91 min
Inclination
97.2845°
Eccentricity
0.0002066
Mean motion
15.33438156 rev/d
Perigee alt
464.1 km
Apogee alt
467.0 km
Semi-major
6,843.7 km
B*
3.9087e-4
RAAN
122.1248°
Arg perigee
87.3236°
Mean anomaly
272.8243°
Rev number
6,476

§ Raw data

STARLINK-347471 64947U 25158R   26263.91489564  .00012562  00000+0  39087-3 0  99912 64947  97.2845 122.1248 0002066  87.3236 272.8243 15.33438156 64760

JSON: /api/v1/satellites/64947 · /tle

For live sub-satellite position, see the globe view (requires WebGL).

§ Visibility from observer

Set your observer location to see the next 7 days of passes ≥ 10°. The values pass through the URL so the page stays shareable.

No JS? Fill the form by hand. The geolocation button needs JavaScript.